Location: Poughquag
(41.6090°N, 73.6820°W)
Time: 11:57:41
(UTC-04:00)

Transit 4A - Pass Details

Date: 03 June 2020
Orbit: 866 x 978 km, 66.8° (Epoch: 06 July)

Event Time Altitude Azimuth Distance (km) Brightness Sun altitude
Rises 09:13:34 0° 336° (NNW) 3,559 10.7 40.6°
Reaches altitude 10° 09:16:29 10° 349° (N) 2,633 10.2 41.2°
Maximum altitude 09:21:38 27° 46° (NE) 1,721 10.2 42.1°
Drops below altitude 10° 09:26:52 10° 103° (ESE) 2,685 11.4 43.1°
Sets 09:29:52 0° 115° (ESE) 3,643 11.7 43.6°
